Header for Extended Forecast Station List Page

Search by: ID | Name | Date | Parm | Value | Avg | % Avg
Sort by: ID | Name | Date | Parm | Value | Avg | % Avg

Enter search or view all records.

Click on id for station plot
#IDNameDateParmValueAvg% Avg
0HWRI1BIG LOST-AT HOWELL RANCH NEAR CHILLY10-09-2018DISCHARGE (KAF)2422112
1MACI1BIG LOST-MACKAY RESERVOIR NEAR MACKAY10-09-2018INFLOW (KAF)436677
2HALI1BIG WOOD-AT HAILEY10-09-2018DISCHARGE (KAF)374192
3MAGI1BIG WOOD-MAGIC DAM10-09-2018INFLOW (KAF)222782
4BITM8BITTERROOT-NEAR MISSOULA10-09-2018DISCHARGE (KAF)16623072
5BONM8BLACKFOOT-NEAR BONNER10-09-2018DISCHARGE (KAF)139137101
6BIGI1BOISE-AT GLENWOOD BRIDGE10-09-2018DISCHARGE (KAF)5137135
7LUCI1BOISE-LUCKY PEAK DAM10-09-2018INFLOW (KAF)28MM
8PARI1BOISE-NEAR PARMA10-09-2018DISCHARGE (KAF)18420988
9HOTI1BRUNEAU-NEAR HOT SPRINGS10-09-2018DISCHARGE (KAF)172666
10BULO3BULLY CREEK-BULLY CREEK DAM10-09-2018INFLOW (KAF)22128
11BUDW1BUMPING-BUMPING LAKE DAM10-09-2018INFLOW (KAF)203459
12CHDW1CHELAN-LAKE CHELAN DAM10-09-2018INFLOW (KAF)13815688
13ABOM8CLARK FORK-ABOVE MISSOULA10-09-2018DISCHARGE (KAF)381347110
14DLGM8CLARK FORK-AT DEER LODGE10-09-2018DISCHARGE (KAF)6963109
15SRGM8CLARK FORK-AT ST REGIS10-09-2018DISCHARGE (KAF)68575790
16BELM8CLARK FORK-BELOW MISSOULA10-09-2018DISCHARGE (KAF)55058195
17CABI1CLARK FORK-CABINET GORGE DAM10-09-2018INFLOW (KAF)2766358777
18NOXM8CLARK FORK-NOXON RAPIDS DAM10-09-2018INFLOW (KAF)2524344273
19DRMM8CLARK FORK-NR DRUMMOND10-09-2018DISCHARGE (KAF)167MM
20CLUW1CLE ELUM-CLE ELUM LAKE10-09-2018INFLOW (KAF)5510055
21ORFI1CLEARWATER-AT OROFINO10-09-2018DISCHARGE (KAF)38262761
22SPDI1CLEARWATER-AT SPALDING10-09-2018DISCHARGE (KAF)819149855
23COEI1COEUR D ALENE-COEUR D ALENE LAKE10-09-2018INFLOW (KAF)23459539
24CIBW1COLUMBIA-AT INTL BOUNDARY10-09-2018DISCHARGE (KAF)19033MM
25BONO3COLUMBIA-BONNEVILLE DAM10-09-2018INFLOW (KAF)285163486382
26CHJW1COLUMBIA-CHIEF JOSEPH DAM10-09-2018INFLOW (KAF)197902081395
27GCDW1COLUMBIA-GRAND COULEE DAM10-09-2018INFLOW (KAF)1971017222114
28JDAO3COLUMBIA-JOHN DAY DAM10-09-2018INFLOW (KAF)271862966692
29MCDW1COLUMBIA-MCNARY DAM10-09-2018INFLOW (KAF)261302883291
30PRWW1COLUMBIA-PRIEST RAPIDS DAM10-09-2018INFLOW (KAF)2087919702106
31RRHW1COLUMBIA-ROCKY REACH DAM10-09-2018INFLOW (KAF)206812167095
32TDAO3COLUMBIA-THE DALLES DAM10-09-2018INFLOW (KAF)278713291485
33WANW1COLUMBIA-WANAPUM DAM10-09-2018INFLOW (KAF)2088019365108
34WELW1COLUMBIA-WELLS DAM10-09-2018INFLOW (KAF)201222116895
35DEDI1DEADWOOD-NEAR LOWMAN10-09-2018INFLOW (KAF)171989
36MODO3DESCHUTES-AT MOODY NR BIGGS10-09-2018DISCHARGE (KAF)1288134296
37ARDW1ENTIAT-NEAR ARDENVOIR10-09-2018DISCHARGE (KAF)192287
38CHEI1FALL RIVER-NEAR CHESTER10-09-2018DISCHARGE (KAF)117111105
39CFMM8FLATHEAD-AT COLUMBIA FALLS10-09-2018DISCHARGE (KAF)902119276
40KERM8FLATHEAD-KERR DAM10-09-2018INFLOW (KAF)1012149468
41TRYO3GRANDE RONDE-TROY10-09-2018DISCHARGE (KAF)18527268
42REXI1HENRYS FORK-AT REXBURG10-09-2018DISCHARGE (KAF)433428101
43ANTI1HENRYS FORK-AT ST. ANTHONY10-09-2018DISCHARGE (KAF)349338103
44IPDI1HENRYS FORK-ISLAND PARK DAM10-09-2018INFLOW (KAF)8411871
45HODO3HOOD-NEAR TUCKER BRIDGE10-09-2018DISCHARGE (KAF)224209108
46SERO3JOHN DAY-AT SERVICE CK10-09-2018DISCHARGE (KAF)12116772
47KADW1KACHESS-KACHESS DAM10-09-2018INFLOW (KAF)344379
48LAUW1KETTLE-AT LAURIER10-09-2018DISCHARGE (KAF)9012771
49PITW1KLICKITAT-NEAR PITT10-09-2018DISCHARGE (KAF)21125782
50BFEI1KOOTENAI-AT BONNERS FERRY10-09-2018STAGE (FT)MMM
51LEOI1KOOTENAI-AT LEONIA10-09-2018DISCHARGE (KAF)24801614154
52LYDM8KOOTENAI-LIBBY DAM10-09-2018INFLOW (KAF)77493783
53LWRI1LITTLE WOOD-LITTLE WOOD DAM10-09-2018INFLOW (KAF)131585
54BERO3MALHEUR-AGENCY VALLEY DAM10-09-2018INFLOW (KAF)101567
55VALO3MALHEUR-NEAR VALE10-09-2018DISCHARGE (KAF)162470
56WRMO3MALHEUR-WARM SPRINGS DAM10-09-2018INFLOW (KAF)111862
57MYKO3MCKAY CREEK-NEAR PILOT ROCK10-09-2018DISCHARGE (KAF)131492
58PATW1METHOW-NEAR PATEROS10-09-2018DISCHARGE (KAF)101100102
59WGCM8MF FLATHEAD-NEAR WEST GLACIER10-09-2018DISCHARGE (KAF)15117288
60CLFW1NACHES-NEAR CLIFFDEL10-09-2018DISCHARGE (KAF)669867
61NACW1NACHES-NEAR NACHES10-09-2018DISCHARGE (KAF)547076
62DWRI1NF CLEARWATER-DWORSHAK DAM10-09-2018INFLOW (KAF)26747656
63FCFM8NF FLATHEAD-NEAR COLUMBIA FALLS10-09-2018DISCHARGE (KAF)11219657
64MONO3NF JOHN DAY-AT MONUMENT10-09-2018DISCHARGE (KAF)548862
65CSDI1NF PAYETTE-CASCADE DAM10-09-2018INFLOW (KAF)829289
66TONW1OKANOGAN-NEAR TONASKET10-09-2018DISCHARGE (KAF)23628084
67OWYO3OWYHEE-OWYHEE DAM10-09-2018INFLOW (KAF)7874107
68EMMI1PAYETTE-NEAR EMMETT10-09-2018DISCHARGE (KAF)28034481
69ALFW1PEND OREILLE-ALBENI FALLS DAM10-09-2018INFLOW (KAF)2899416970
70HOPI1PEND OREILLE-PEND OREILLE LAKE NR HOPE10-09-2018LAKE ELEVATION (FT)MMM
71PIHI1PORTNEUF-AT POCATELLO10-09-2018DISCHARGE (KAF)535989
72PRTI1PRIEST-NEAR PRIEST RIVER10-09-2018DISCHARGE (KAF)13823459
73RCCM8ROCK CREEK-NEAR CLINTON10-09-2018DISCHARGE (KAF)6050121
74WHBI1SALMON-AT WHITEBIRD10-09-2018DISCHARGE (KAF)1008108493
75ARAI1SF BOISE-ANDERSON RANCH DAM10-09-2018INFLOW (KAF)687393
76HHWM8SF FLATHEAD-HUNGRY HORSE DAM10-09-2018INFLOW (KAF)13724456
77PLDI1SF SNAKE-PALISADES DAM10-09-2018INFLOW (KAF)648646100
78SIFI1SNAKE-AB EAGLE ROCK NR IDAHO FALLS10-09-2018DISCHARGE (KAF)868817106
79AFRI1SNAKE-AMERICAN FALLS RESERVOIR10-09-2018INFLOW (KAF)1436145299
80SNAI1SNAKE-AT BLACKFOOT10-09-2018DISCHARGE (KAF)758714106
81MILI1SNAKE-AT MILNER10-09-2018DISCHARGE (KAF)13251426
82WEII1SNAKE-AT WEISER10-09-2018DISCHARGE (KAF)2734355977
83SWAI1SNAKE-BELOW SWAN FALLS10-09-2018DISCHARGE (KAF)1927251777
84BRNI1SNAKE-BROWNLEE DAM10-09-2018INFLOW (KAF)2909366079
85IHDW1SNAKE-ICE HARBOR DAM10-09-2018INFLOW (KAF)4675725764
86JLKW4SNAKE-JACKSON LAKE AT DAM10-09-2018INFLOW (KAF)10611295
87LGSW1SNAKE-LITTLE GOOSE DAM10-09-2018INFLOW (KAF)4643727764
88LGDW1SNAKE-LOWER GRANITE DAM10-09-2018INFLOW (KAF)4643722764
89LMNW1SNAKE-LOWER MONUMENTAL DAM10-09-2018INFLOW (KAF)4675733464
90ALPW4SNAKE-NEAR ALPINE10-09-2018DISCHARGE (KAF)413400103
91ANAW1SNAKE-NEAR ANATONE10-09-2018DISCHARGE (KAF)3823552369
92BFTI1SNAKE-NEAR BLACKFOOT10-09-2018DISCHARGE (KAF)777771101
93HEII1SNAKE-NEAR HEISE10-09-2018DISCHARGE (KAF)631620102
94JKSW4SNAKE-NEAR JACKSON10-09-2018DISCHARGE (KAF)325315103
95SHYI1SNAKE-NEAR SHELLEY10-09-2018DISCHARGE (KAF)863797108
96LLKW1SPOKANE-AT LONGLAKE10-09-2018INFLOW (KAF)525104450
97SPOW1SPOKANE-AT SPOKANE10-09-2018DISCHARGE (KAF)339MM
98SJMI1ST JOE-AT ST MARIES10-09-2018STAGE (FT)MMM
99SATI1ST MARIES-NEAR SANTA10-09-2018DISCHARGE (KAF)152952
100STRM8ST. REGIS-NEAR ST. REGIS10-09-2018DISCHARGE (KAF)183651
101TNAW1TEANAWAY-BELOW FORKS10-09-2018DISCHARGE (KAF)113533
102TEAI1TETON-NEAR ST. ANTHONY10-09-2018DISCHARGE (KAF)9910792
103RILW1TIETON-RIMROCK LAKE NEAR RIMROCK10-09-2018INFLOW (KAF)376458
104PDTO3UMATILLA-AT PENDLETON10-09-2018DISCHARGE (KAF)7366112
105GIBO3UMATILLA-NEAR GIBBON10-09-2018DISCHARGE (KAF)3329111
106UMAO3UMATILLA-NEAR UMATILLA10-09-2018DISCHARGE (KAF)10869157
107TCHW1WALLA WALLA-NEAR TOUCHET10-09-2018DISCHARGE (KAF)869789
108WSRI1WEISER-NEAR WEISER10-09-2018DISCHARGE (KAF)376656
109PESW1WENATCHEE-AT PESHASTIN10-09-2018DISCHARGE (KAF)18429063
110UNDW1WHITE SALMON-NEAR UNDERWOOD10-09-2018DISCHARGE (KAF)221221100
111RIDI1WILLOW CREEK-RIRIE DAM10-09-2018INFLOW (KAF)88101
112EASW1YAKIMA-AT EASTON10-09-2018DISCHARGE (KAF)456470
113KIOW1YAKIMA-AT KIONA10-09-2018DISCHARGE (KAF)54165982
114UMTW1YAKIMA-AT UMTANUM10-09-2018DISCHARGE (KAF)19724182
115KEDW1YAKIMA-KEECHELUS LAKE10-09-2018INFLOW (KAF)375074
116PARW1YAKIMA-NEAR PARKER10-09-2018DISCHARGE (KAF)31542374